TimeMDT,TemperatureF,Dew PointF,Humidity,Sea Level PressureIn,VisibilityMPH,Wind Direction,Wind SpeedMPH,Gust SpeedMPH,PrecipitationIn,Events,Conditions,WindDirDegrees,DateUTC
12:53 AM,50.0,45.0,83,29.78,10.0,NNW,13.8,-,N/A,,Scattered Clouds,330,2013-05-20 06:53:00
1:53 AM,48.9,44.1,83,29.77,10.0,NW,15.0,24.2,0.00,,Mostly Cloudy,320,2013-05-20 07:53:00
2:53 AM,46.9,45.0,93,29.78,5.0,NNW,28.8,40.3,0.03,Rain,Light Rain,340,2013-05-20 08:53:00
3:53 AM,46.9,44.1,90,29.80,9.0,WNW,20.7,27.6,0.14,Rain,Light Rain,290,2013-05-20 09:53:00
4:53 AM,46.9,45.0,93,29.80,10.0,West,18.4,-,0.04,Rain,Light Rain,280,2013-05-20 10:53:00
5:53 AM,46.9,45.0,93,29.81,10.0,West,13.8,-,0.01,,Overcast,280,2013-05-20 11:53:00
6:53 AM,48.0,45.0,89,29.82,10.0,West,15.0,-,0.00,,Overcast,280,2013-05-20 12:53:00
7:53 AM,48.9,46.0,90,29.83,10.0,West,12.7,-,0.01,,Overcast,280,2013-05-20 13:53:00
8:53 AM,54.0,45.0,72,29.82,10.0,WNW,18.4,24.2,0.00,,Overcast,290,2013-05-20 14:53:00
9:53 AM,55.0,45.0,69,29.80,10.0,WNW,17.3,-,N/A,,Overcast,290,2013-05-20 15:53:00
10:53 AM,55.9,41.0,57,29.79,10.0,NW,19.6,25.3,N/A,,Overcast,320,2013-05-20 16:53:00
11:53 AM,59.0,46.0,62,29.79,10.0,NNW,28.8,40.3,0.05,,Overcast,330,2013-05-20 17:53:00
12:53 PM,60.1,39.9,47,29.79,10.0,NNW,38.0,46.0,0.00,,Mostly Cloudy,330,2013-05-20 18:53:00
1:53 PM,60.1,39.0,46,29.78,10.0,NNW,34.5,48.3,N/A,,Scattered Clouds,330,2013-05-20 19:53:00
2:53 PM,60.1,39.0,46,29.80,10.0,NNW,38.0,50.6,N/A,,Mostly Cloudy,330,2013-05-20 20:53:00
3:53 PM,57.0,39.0,51,29.83,10.0,NNW,34.5,49.5,N/A,,Mostly Cloudy,340,2013-05-20 21:53:00
4:53 PM,54.0,39.9,59,29.84,10.0,NNW,34.5,48.3,N/A,,Scattered Clouds,330,2013-05-20 22:53:00
5:53 PM,53.1,37.9,57,29.86,10.0,NNW,41.4,49.5,N/A,,Overcast,330,2013-05-20 23:53:00
6:53 PM,52.0,37.9,59,29.87,10.0,NNW,34.5,46.0,N/A,,Overcast,330,2013-05-21 00:53:00
8:53 PM,48.9,37.0,64,29.89,10.0,NNW,28.8,35.7,N/A,,Overcast,330,2013-05-21 02:53:00
9:53 PM,46.9,36.0,66,29.92,10.0,NNW,26.5,32.2,N/A,,Clear,330,2013-05-21 03:53:00
10:53 PM,46.9,36.0,66,29.91,10.0,NW,25.3,31.1,N/A,,Clear,310,2013-05-21 04:53:00
11:53 PM,46.9,36.0,66,29.90,10.0,NW,26.5,34.5,N/A,,Scattered Clouds,320,2013-05-21 05:53:00